NOAA 16 DEB, 41262

Orbit data source: Space-Track

NOAA 16 DEB, 41262 is space debris in SSO originally from a launch on Thu, 21 Sep 2000 UTC launched from the Air Force Western Test Range (AFWTR). Debris objects in space refer to the collection of defunct objects orbiting the Earth. Examples of debris include non-operational satellites, rocket bodies, and fragments generated from explosions, collisions, or faulty payload assembly.

Loading next visibility...
Identifier
41262, 2000-055FN
Orbit
SSO
Country
Flag of USUS
Related business
Manufacturer
Unknown
Mission
Spacecraft
Bus & Motor
Unknown
Mass
Unknown
Launch date (UTC)
2000-09-21 (25 years ago)
Launch vehicle
Unknown
Launch site
Air Force Western Test Range (AFWTR)
Object type
Payload
Rocket body
Debris
Shape & HBR
Unknown shape, 0.1 m
Radar Cross Section
Small (<0.1 m²)

Expand to show TLE details & history
Last TLE update: 4 days ago

TLE from 4 days ago
0 NOAA 16 DEB
1 41262U 00055FN  25343.87542647  .00008956  00000-0  39991-2 0  9996
2 41262  98.7882   9.3280 0047105 140.4004 220.0629 14.22313837512677
Epoch: 2025-12-09T21:00Z
TLE epoch observation values (Epoch: 2025-12-09T21:00:36.847Z)
Latitude
-0.00011°
Longitude
-24.67934°
Altitude
846.466 km
Speed
7.416 km/s
True Right ascension
00h 37m 18s
True Declination
0° 00' 00"
Sunlit
Object was in daylight at epoch
Visualization orbit readout
Latitude
Unknown
Longitude
Unknown
Altitude
Unknown
Speed
Unknown
Apparent Right ascension
Unknown
Apparent Declination
Unknown
Sunlit
N/A
Visualization observer readout
Local Sidereal Time
09:17:36
Azimuth
Unknown
Elevation
Unknown
Doppler factor
Unknown
Orbital elements
Apogee altitude
848.579 km
Perigee altitude
780.816 km
Semi-major axis
7,192.834 km
Eccentricity
0.00471
Inclination
98.7882°
RAAN
9.328°
Arg. of periapsis
140.4004°
True anomaly
219.71704°
Mean anomaly
220.0629°
Eccentric anomaly
219.88981°
Mean motion
3.55789 °/min
Orbital period
101.18 mins
BSTAR
0.0039991
Loading maneuver chart data...
Computing Atmospheric mass density...
Loading historical data...
Loading historical data...
Loading historical data...
Loading historical data...
Loading historical data...
Loading historical data...
Loading historical data...

Documentation

Showing up to 5 results
|